�������l�o���
Date,Time,MP-1(��Sv/h),MP-2(��Sv/h),MP-3(��Sv/h),MP-4(��Sv/h),MP-5(��Sv/h),MP-6(��Sv/h),MP-7(��Sv/h),MP-8(��Sv/h),����,����(m/s),���J
2020/07/09,00:00,0.650,0.904,0.587,1.112,0.773,0.389,0.660,0.623,���쐼,2.0,��
2020/07/09,00:10,0.651,0.905,0.584,1.115,0.771,0.387,0.659,0.623,���k��,2.3,��
2020/07/09,00:20,0.650,0.906,0.586,1.110,0.773,0.388,0.660,0.623,�k�k��,1.7,��
2020/07/09,00:30,0.651,0.905,0.587,1.112,0.772,0.386,0.659,0.623,�k�k��,2.5,��
2020/07/09,00:40,0.650,0.904,0.587,1.114,0.773,0.385,0.659,0.623,�k��,2.0,��
2020/07/09,00:50,0.648,0.906,0.586,1.113,0.772,0.388,0.659,0.622,�k��,2.8,��
2020/07/09,01:00,0.651,0.905,0.587,1.115,0.774,0.388,0.659,0.623,���k��,1.7,��
2020/07/09,01:10,0.651,0.906,0.586,1.112,0.772,0.387,0.659,0.623,��,1.4,��
2020/07/09,01:20,0.650,0.906,0.587,1.116,0.776,0.387,0.660,0.623,��,0.6,��
2020/07/09,01:30,0.652,0.908,0.587,1.113,0.773,0.386,0.659,0.623,��,0.6,��
2020/07/09,01:40,0.649,0.906,0.586,1.116,0.774,0.387,0.659,0.624,-,CALM,��
2020/07/09,01:50,0.651,0.910,0.587,1.113,0.774,0.387,0.661,0.624,��,1.1,��
2020/07/09,02:00,0.650,0.907,0.586,1.117,0.772,0.388,0.660,0.623,��쓌,1.7,��
2020/07/09,02:10,0.652,0.907,0.586,1.114,0.774,0.388,0.659,0.624,�쓌,1.9,��
2020/07/09,02:20,0.651,0.911,0.585,1.115,0.775,0.389,0.659,0.622,���쓌,1.5,��
2020/07/09,02:30,0.650,0.909,0.587,1.116,0.775,0.388,0.660,0.623,���쓌,2.0,��
2020/07/09,02:40,0.651,0.907,0.587,1.115,0.775,0.387,0.659,0.623,��,1.5,��
2020/07/09,02:50,0.651,0.906,0.588,1.116,0.774,0.387,0.660,0.624,���k��,1.2,�L
2020/07/09,03:00,0.650,0.908,0.586,1.118,0.776,0.387,0.660,0.624,�k��,1.4,�L
2020/07/09,03:10,0.650,0.910,0.588,1.116,0.775,0.387,0.659,0.624,�k�k��,1.5,�L
2020/07/09,03:20,0.652,0.911,0.587,1.116,0.777,0.389,0.662,0.622,�k��,1.5,��
2020/07/09,03:30,0.652,0.911,0.587,1.117,0.777,0.387,0.660,0.623,�k,1.2,��
2020/07/09,03:40,0.649,0.910,0.587,1.117,0.777,0.387,0.659,0.623,-,CALM,��
2020/07/09,03:50,0.651,0.910,0.586,1.116,0.778,0.388,0.658,0.623,�k�k��,0.9,��
2020/07/09,04:00,0.650,0.910,0.587,1.115,0.778,0.387,0.658,0.623,�k�k��,1.5,�L
2020/07/09,04:10,0.650,0.909,0.587,1.118,0.777,0.388,0.659,0.624,��쓌,0.6,�L
2020/07/09,04:20,0.652,0.908,0.587,1.116,0.777,0.388,0.659,0.622,�쓌,1.2,�L
2020/07/09,04:30,0.652,0.909,0.588,1.116,0.777,0.387,0.660,0.624,�쓌,1.4,�L
2020/07/09,04:40,0.651,0.908,0.587,1.118,0.777,0.388,0.661,0.622,�쓌,2.3,�L
2020/07/09,04:50,0.652,0.911,0.588,1.117,0.778,0.389,0.659,0.622,��쓌,2.5,�L
2020/07/09,05:00,0.649,0.908,0.588,1.115,0.774,0.389,0.654,0.621,��,4.9,�L
2020/07/09,05:10,0.649,0.909,0.587,1.113,0.773,0.390,0.655,0.621,��쐼,2.6,�L
2020/07/09,05:20,0.648,0.904,0.587,1.111,0.771,0.388,0.654,0.618,��쓌,2.6,�L
2020/07/09,05:30,0.644,0.897,0.584,1.104,0.764,0.387,0.653,0.618,��쐼,1.7,�L
2020/07/09,05:40,0.642,0.894,0.584,1.101,0.763,0.386,0.651,0.616,��,1.7,�L
2020/07/09,05:50,0.644,0.892,0.584,1.100,0.763,0.388,0.651,0.616,�쐼,1.1,�L
2020/07/09,06:00,0.644,0.895,0.583,1.100,0.768,0.387,0.650,0.616,���쐼,0.9,�L
2020/07/09,06:10,0.643,0.894,0.584,1.098,0.764,0.386,0.651,0.617,���쐼,1.5,�L
2020/07/09,06:20,0.644,0.894,0.581,1.097,0.763,0.386,0.651,0.616,��,1.7,�L
2020/07/09,06:30,0.644,0.893,0.581,1.097,0.765,0.385,0.652,0.615,��,1.5,�L
2020/07/09,06:40,0.643,0.894,0.582,1.098,0.764,0.386,0.653,0.616,���k��,1.5,�L
2020/07/09,06:50,0.644,0.895,0.581,1.097,0.764,0.387,0.652,0.617,-,CALM,�L
2020/07/09,07:00,0.645,0.894,0.583,1.096,0.766,0.384,0.650,0.616,�k��,0.6,��
2020/07/09,07:10,0.643,0.895,0.580,1.100,0.765,0.385,0.652,0.615,��쐼,0.9,��
2020/07/09,07:20,0.644,0.897,0.580,1.097,0.766,0.384,0.651,0.617,��쐼,1.4,��
2020/07/09,07:30,0.643,0.896,0.581,1.100,0.763,0.384,0.651,0.616,��쐼,1.4,��
2020/07/09,07:40,0.644,0.898,0.581,1.101,0.764,0.383,0.652,0.616,��쐼,1.7,��
2020/07/09,07:50,0.643,0.897,0.582,1.100,0.765,0.382,0.653,0.615,��쐼,1.5,��
2020/07/09,08:00,0.642,0.893,0.579,1.099,0.765,0.383,0.653,0.616,��쐼,1.5,��
2020/07/09,08:10,0.643,0.895,0.580,1.099,0.766,0.384,0.652,0.615,��쐼,1.4,��
2020/07/09,08:20,0.644,0.895,0.582,1.099,0.763,0.383,0.653,0.616,��쓌,1.5,��
2020/07/09,08:30,0.643,0.897,0.580,1.100,0.767,0.385,0.653,0.615,��쓌,2.8,��
2020/07/09,08:40,0.643,0.897,0.582,1.099,0.765,0.384,0.654,0.617,�쓌,2.9,��
2020/07/09,08:50,0.643,0.898,0.579,1.101,0.767,0.382,0.653,0.617,�쓌,3.1,��
2020/07/09,09:00,0.643,0.897,0.580,1.103,0.768,0.383,0.653,0.616,�쓌,2.9,��
2020/07/09,09:10,0.645,0.896,0.580,1.101,0.768,0.383,0.654,0.618,��쓌,2.6,��
2020/07/09,09:20,0.646,0.896,0.581,1.101,0.770,0.385,0.654,0.618,��쓌,3.6,��
2020/07/09,09:30,0.645,0.897,0.580,1.103,0.770,0.385,0.654,0.618,��,2.3,��
2020/07/09,09:40,0.645,0.898,0.580,1.099,0.770,0.384,0.655,0.619,��쐼,2.3,��
2020/07/09,09:50,0.645,0.899,0.579,1.104,0.771,0.385,0.654,0.616,���쐼,2.2,��
2020/07/09,10:00,0.647,0.901,0.579,1.104,0.770,0.386,0.655,0.619,���k��,1.7,��
2020/07/09,10:10,0.646,0.899,0.581,1.103,0.768,0.379,0.656,0.620,-,CALM,��
2020/07/09,10:20,0.646,0.901,0.581,1.103,0.771,0.386,0.654,0.618,���k��,1.5,��
2020/07/09,10:30,0.646,0.903,0.581,1.101,0.777,0.384,0.656,0.618,�k��,1.5,��
2020/07/09,10:40,0.648,0.902,0.584,1.105,0.776,0.385,0.655,0.618,�k�k��,1.4,��
2020/07/09,10:50,0.645,0.903,0.583,1.103,0.772,0.385,0.655,0.620,-,CALM,��
2020/07/09,11:00,0.646,0.905,0.581,1.101,0.771,0.386,0.658,0.622,��,2.0,��
2020/07/09,11:10,0.646,0.904,0.579,1.103,0.772,0.384,0.656,0.618,��쓌,0.6,��
2020/07/09,11:20,0.649,0.903,0.583,1.108,0.774,0.387,0.658,0.622,�쓌,1.2,��
2020/07/09,11:30,0.647,0.904,0.583,1.106,0.774,0.385,0.657,0.619,��쓌,2.5,�L
2020/07/09,11:40,0.648,0.908,0.585,1.107,0.774,0.385,0.658,0.620,��쓌,2.5,��
2020/07/09,11:50,0.647,0.909,0.584,1.106,0.775,0.386,0.657,0.621,�k��,0.6,��
2020/07/09,12:00,0.645,0.908,0.584,1.107,0.774,0.387,0.658,0.619,�k��,1.2,��
2020/07/09,12:10,0.645,0.911,0.585,1.108,0.774,0.386,0.658,0.621,�k��,2.0,��
2020/07/09,12:20,0.648,0.910,0.582,1.109,0.776,0.386,0.658,0.620,�k��,2.0,��
2020/07/09,12:30,0.650,0.911,0.585,1.106,0.777,0.387,0.658,0.620,�k��,1.5,��
2020/07/09,12:40,0.650,0.912,0.585,1.108,0.775,0.387,0.658,0.622,�쓌,1.5,��
2020/07/09,12:50,0.647,0.912,0.580,1.109,0.776,0.386,0.660,0.620,�쓌,2.9,��
2020/07/09,13:00,0.647,0.910,0.581,1.110,0.777,0.388,0.658,0.622,���쓌,2.5,��
2020/07/09,13:10,0.648,0.915,0.582,1.111,0.778,0.387,0.657,0.620,���쓌,2.0,��
2020/07/09,13:20,0.650,0.915,0.581,1.109,0.779,0.387,0.659,0.623,�쓌,2.9,��
2020/07/09,13:30,0.649,0.914,0.580,1.111,0.779,0.387,0.658,0.622,��쓌,2.6,��
2020/07/09,13:40,0.650,0.910,0.585,1.113,0.780,0.387,0.659,0.621,�쓌,2.0,��
2020/07/09,13:50,0.652,0.911,0.586,1.114,0.778,0.386,0.661,0.619,�쓌,2.9,��
2020/07/09,14:00,0.650,0.915,0.586,1.112,0.782,0.388,0.660,0.623,���k��,1.9,��
2020/07/09,14:10,0.651,0.916,0.585,1.112,0.780,0.389,0.659,0.622,���k��,2.0,��
2020/07/09,14:20,0.650,0.914,0.586,1.114,0.780,0.387,0.660,0.621,�k��,1.2,��
2020/07/09,14:30,0.648,0.916,0.588,1.114,0.780,0.387,0.662,0.623,�k�k��,2.6,��
2020/07/09,14:40,0.652,0.916,0.587,1.115,0.780,0.388,0.660,0.621,�k�k��,2.5,��
2020/07/09,14:50,0.649,0.919,0.587,1.115,0.782,0.389,0.660,0.623,�k�k��,2.3,��
2020/07/09,15:00,0.650,0.924,0.589,1.116,0.781,0.387,0.661,0.621,�k,3.3,��
2020/07/09,15:10,0.652,0.935,0.586,1.114,0.782,0.387,0.662,0.623,�k,2.8,��
2020/07/09,15:20,0.652,0.922,0.587,1.116,0.783,0.388,0.663,0.622,�k��,2.5,��
2020/07/09,15:30,0.651,0.918,0.588,1.117,0.781,0.387,0.662,0.623,��,1.5,��
2020/07/09,15:40,0.652,0.918,0.585,1.115,0.782,0.389,0.662,0.623,�k��,1.4,��
2020/07/09,15:50,0.652,0.918,0.586,1.117,0.783,0.386,0.662,0.622,�k��,1.5,��
2020/07/09,16:00,0.653,0.917,0.586,1.117,0.781,0.387,0.662,0.624,�k�k��,2.3,��
2020/07/09,16:10,0.651,0.918,0.588,1.116,0.781,0.389,0.661,0.624,�k,1.7,��
2020/07/09,16:20,0.649,0.920,0.589,1.115,0.780,0.387,0.660,0.623,���k��,1.1,��
2020/07/09,16:30,0.651,0.918,0.588,1.115,0.781,0.388,0.662,0.623,�k,1.9,��
2020/07/09,16:40,0.653,0.919,0.588,1.117,0.786,0.387,0.663,0.624,�k,2.0,��
2020/07/09,16:50,0.651,0.920,0.589,1.117,0.786,0.389,0.662,0.623,�k��,1.5,��
2020/07/09,17:00,0.652,0.920,0.588,1.118,0.784,0.390,0.662,0.622,�k,1.2,��
2020/07/09,17:10,0.652,0.922,0.590,1.119,0.787,0.388,0.662,0.623,�k�k��,1.7,��
2020/07/09,17:20,0.653,0.919,0.590,1.118,0.785,0.388,0.662,0.624,�k�k��,1.5,��
2020/07/09,17:30,0.654,0.922,0.589,1.120,0.786,0.389,0.662,0.624,-,CALM,��
2020/07/09,17:40,0.656,0.924,0.590,1.121,0.785,0.389,0.663,0.623,-,CALM,��
2020/07/09,17:50,0.653,0.922,0.589,1.118,0.786,0.389,0.665,0.625,���쓌,0.9,��
2020/07/09,18:00,0.653,0.923,0.590,1.119,0.786,0.388,0.663,0.624,�쓌,1.2,��
2020/07/09,18:10,0.652,0.922,0.590,1.120,0.786,0.387,0.667,0.623,��쓌,1.2,�L
2020/07/09,18:20,0.652,0.922,0.590,1.120,0.786,0.387,0.664,0.625,���쓌,0.6,�L
2020/07/09,18:30,0.653,0.922,0.592,1.120,0.785,0.387,0.663,0.623,��,0.9,�L
2020/07/09,18:40,0.654,0.923,0.590,1.120,0.787,0.389,0.666,0.624,��쐼,1.7,��
2020/07/09,18:50,0.655,0.925,0.592,1.123,0.786,0.388,0.666,0.624,���쐼,1.1,��
2020/07/09,19:00,0.653,0.924,0.591,1.122,0.786,0.389,0.664,0.626,��,0.8,�L
2020/07/09,19:10,0.654,0.923,0.591,1.121,0.787,0.390,0.666,0.626,-,CALM,��
2020/07/09,19:20,0.655,0.925,0.590,1.122,0.786,0.391,0.665,0.625,-,CALM,�L
2020/07/09,19:30,0.655,0.925,0.591,1.121,0.787,0.391,0.664,0.627,��,0.6,��
2020/07/09,19:40,0.653,0.922,0.590,1.121,0.786,0.389,0.665,0.625,���k��,0.6,��
2020/07/09,19:50,0.653,0.924,0.590,1.122,0.786,0.390,0.664,0.625,-,CALM,��
2020/07/09,20:00,0.655,0.925,0.591,1.121,0.789,0.390,0.665,0.627,�쐼,1.5,��
2020/07/09,20:10,0.655,0.924,0.592,1.121,0.789,0.390,0.662,0.624,��쐼,1.2,��
2020/07/09,20:20,0.654,0.926,0.591,1.121,0.788,0.389,0.666,0.627,���쐼,0.9,��
2020/07/09,20:30,0.656,0.925,0.591,1.123,0.788,0.389,0.663,0.627,�k�k��,1.1,��
2020/07/09,20:40,0.654,0.925,0.590,1.121,0.789,0.389,0.665,0.627,-,CALM,��
2020/07/09,20:50,0.655,0.925,0.591,1.122,0.788,0.388,0.665,0.627,-,CALM,��
2020/07/09,21:00,0.654,0.925,0.590,1.122,0.789,0.391,0.665,0.626,�k��,0.6,��
2020/07/09,21:10,0.652,0.925,0.589,1.122,0.787,0.390,0.664,0.626,�k,0.9,��
2020/07/09,21:20,0.654,0.922,0.591,1.123,0.788,0.389,0.664,0.627,�k��,0.9,��
2020/07/09,21:30,0.654,0.924,0.592,1.122,0.788,0.389,0.664,0.625,�k�k��,0.6,��
2020/07/09,21:40,0.654,0.924,0.592,1.121,0.791,0.389,0.664,0.625,�k,0.9,��
2020/07/09,21:50,0.655,0.926,0.593,1.121,0.787,0.390,0.664,0.626,�k,0.9,��
2020/07/09,22:00,0.654,0.925,0.592,1.123,0.788,0.389,0.664,0.626,�k,1.7,��
2020/07/09,22:10,0.654,0.925,0.591,1.126,0.791,0.390,0.663,0.625,�k,2.2,��
2020/07/09,22:20,0.654,0.924,0.591,1.124,0.788,0.389,0.664,0.627,�k�k��,1.9,��
2020/07/09,22:30,0.655,0.924,0.591,1.124,0.791,0.390,0.665,0.627,�k,1.4,��
2020/07/09,22:40,0.654,0.925,0.592,1.123,0.789,0.390,0.664,0.628,�k�k��,1.4,��
2020/07/09,22:50,0.655,0.925,0.592,1.123,0.789,0.390,0.664,0.627,�k��,1.2,��
2020/07/09,23:00,0.654,0.927,0.591,1.121,0.790,0.389,0.663,0.626,�쐼,0.6,��
2020/07/09,23:10,0.655,0.927,0.593,1.125,0.790,0.390,0.664,0.625,��쐼,0.9,��
2020/07/09,23:20,0.654,0.925,0.591,1.123,0.788,0.389,0.664,0.627,��,1.2,��
2020/07/09,23:30,0.656,0.925,0.591,1.123,0.789,0.389,0.665,0.626,�쐼,1.1,��
2020/07/09,23:40,0.654,0.925,0.592,1.123,0.787,0.390,0.663,0.626,��,0.8,��
2020/07/09,23:50,0.654,0.926,0.591,1.125,0.788,0.389,0.665,0.626,��쓌,0.9,��
